STARLINK-32837, 62812

Orbit data source: Space-Track

STARLINK-32837, 62812 is a payload satellite owned by SpaceX/Seattle (US) in LEO that was launched on Fri, 24 Jan 2025 UTC via an FALCON 9 launch vehicle from the Air Force Western Test Range (AFWTR). Payload-class satellites include a variety of spacecraft equipped with specific instruments for various scientific and technological missions. These include communications satellites like Starlink; space stations such as the ISS; scientific satellites like the Hubble; Earth observation satellites from companies like Planet Labs, Umbra, and HawkEye 360; GPS; miniature CubeSats for education and research; and military/defense satellites.

Loading next visibility...
Identifier
62812, 2025-018G
Orbit
LEO
Country
Flag of USUS
Related business
Manufacturer
SpaceX/Seattle
Mission
Operational Commercial Communications
Bus & Motor
STARLINK V2M, Unknown motor
Mass
730 kg wet, ~700 kg dry
Launch date (UTC)
2025-01-24 (9 months ago)
Launch vehicle
FALCON 9
Launch site
Air Force Western Test Range (AFWTR)
Object type
Payload
Rocket body
Debris
Shape & HBR
Box + 2 Pan, 17.7 m
Radar Cross Section
33.884 m², Large (>1 m²)

Expand to show TLE details & history
Last TLE update: 9 hours ago

TLE from 9 hours ago
0 STARLINK-32837
1 62812U 25018G   25291.25834319  .00064970  00000-0  21863-2 0  9997
2 62812  53.1579 251.0376 0001195  91.4458 268.6679 15.30204787 41378
Epoch: 2025-10-18T06:12Z
TLE epoch observation values (Epoch: 2025-10-18T06:12:00.851Z)
Latitude
-0.00008°
Longitude
131.04205°
Altitude
476.119 km
Speed
7.629 km/s
True Right ascension
16h 44m 09s
True Declination
0° 00' 00"
Sunlit
Object was in daylight at epoch
Visualization orbit readout
Latitude
Unknown
Longitude
Unknown
Altitude
Unknown
Speed
Unknown
Apparent Right ascension
Unknown
Apparent Declination
Unknown
Sunlit
N/A
Visualization observer readout
Local Sidereal Time
10:08:13
Azimuth
Unknown
Elevation
Unknown
Doppler factor
Unknown
Orbital elements
Apogee altitude
476.277 km
Perigee altitude
474.639 km
Semi-major axis
6,853.595 km
Eccentricity
0.00012
Inclination
53.1579°
RAAN
251.0376°
Arg. of periapsis
91.4458°
True anomaly
268.65421°
Mean anomaly
268.6679°
Eccentric anomaly
268.66106°
Mean motion
3.8253 °/min
Orbital period
94.11 mins
BSTAR
0.0021863
Loading maneuver chart data...
Computing Atmospheric mass density...
Loading historical data...
Loading historical data...
Loading historical data...
Loading historical data...
Loading historical data...
Loading historical data...
Loading historical data...

Documentation

Showing up to 5 results
|